Commit Graph
100 Commits
Author SHA1 Message Date
Phuntsok Drak-pa bdf3f66324 Merge branch 'new-style' 2019-08-25 05:02:01 +02:00
Phuntsok Drak-pa 8b7de1042a merged .gitignore from new-style branch 2019-08-25 04:59:48 +02:00
Phuntsok Drak-pa c9110f8438 ignore .tern-port file 2019-08-25 04:58:54 +02:00
Phuntsok Drak-pa fff0d4bfed Now light and dark themes available, remember theme with cookies 2019-08-25 04:48:03 +02:00
Phuntsok Drak-pa 6a993740f5 Better link to the Mattér page from the Eittlandic page 2019-08-25 03:15:17 +02:00
Phuntsok Drak-pa 096c4c5b89 syntax fix 2019-08-25 01:35:42 +02:00
Phuntsok Drak-pa 92e6fbd67a code commenting 2019-08-25 01:35:23 +02:00
Phuntsok Drak-pa 303d24bbb4 Accidently deleted this file 2019-08-25 01:31:57 +02:00
Phuntsok Drak-pa a1e73e9d39 New style, ver 0.1 2019-08-25 01:28:24 +02:00
Phuntsok Drak-pa 80640a98a5 HTML fix, more info on alphabet 2019-08-25 01:06:28 +02:00
Phuntsok Drak-pa f5818b6b32 Added lots of information on consonants 2019-08-24 18:54:46 +02:00
Phuntsok Drak-pa 5378671375 Some more work on vowels, added details on runes 2019-08-23 13:30:52 +02:00
Phuntsok Drak-pa 62acb23a11 orthography 2019-08-23 13:30:33 +02:00
Phuntsok Drak-pa b42d6e61b0 image update 2019-08-22 20:32:09 +02:00
Phuntsok Drak-pa 6773e1d58f fixed orthography of Eittlandic, ordered vowel presentation 2019-08-22 20:31:52 +02:00
Phuntsok Drak-pa 2f4101b041 fixed linking issues 2019-08-22 20:31:36 +02:00
Phuntsok Drak-pa 719909b958 fixed issue with runic font not appearing on some devices 2019-08-22 20:30:35 +02:00
Phuntsok Drak-pa aa6621bd29 Renamed file to correct language name 2019-08-21 20:31:04 +02:00
Phuntsok Drak-pa 2d522a27c3 added information in introduction, vowels 2019-08-21 20:30:48 +02:00
Phuntsok Drak-pa fc2a0e43d9 Added rewrite of the Ňyqy grammar 2019-08-21 14:59:39 +02:00
Phuntsok Drak-pa c448a08cb9 Renamed Einnland to Eittland 2019-08-21 14:59:24 +02:00
Phuntsok Drak-pa 5a8420b208 updated image 2019-08-19 16:13:12 +02:00
Phuntsok Drak-pa b36b757aea consonant feature tree now sideways for PDF 2019-08-19 16:12:57 +02:00
Phuntsok Drak-pa 8797188178 added beginning of list of monarchs of Einnland 2019-08-19 16:12:30 +02:00
Phuntsok Drak-pa 5471f0aa12 changed Scheme code to Elisp code 2019-08-14 02:55:02 +02:00
Phuntsok Drak-pa 14b4ca999e added spacemacs logo to readme 2019-08-13 16:42:00 +02:00
Phuntsok Drak-pa 45d9276bb9 some more Einnlandic phonology 2019-08-13 16:36:48 +02:00
Phuntsok Drak-pa e323a3e7b5 even simpler macro call 2019-08-13 16:36:35 +02:00
Phuntsok Drak-pa 863ae1da73 removed timestamp from introduction paragraph 2019-08-13 03:00:58 +02:00
Phuntsok Drak-pa 0ef2b2ea99 Added basic phonology to Einnlandic, added rune macro 2019-08-13 02:13:20 +02:00
Phuntsok Drak-pa 66790e464b even easier to use and better rune macro 2019-08-13 01:51:16 +02:00
Phuntsok Drak-pa 462dc4f31d fixed link to pdfs in index 2019-08-13 00:45:38 +02:00
Phuntsok Drak-pa 9087d487df better rune macro for Mattér 2019-08-13 00:27:41 +02:00
Phuntsok Drak-pa f311ddf990 Updated introduction, added basics for vowels 2019-08-10 20:02:59 +02:00
Phuntsok Drak-pa 4cc4d85128 formatting 2019-08-10 19:35:38 +02:00
Phuntsok Drak-pa e1d072af76 deleted now useless CNAME file 2019-08-10 18:43:28 +02:00
Phuntsok Drak-pa 0f7a56bf9f reorganization of the Einnlandic page 2019-08-10 18:13:19 +02:00
Phuntsok Drak-pa 89a60f50a2 changed the name of the vertical macro to `v' 2019-08-08 15:37:32 +02:00
Phuntsok Drak-pa c367991d69 better template 2019-08-06 15:54:38 +02:00
Phuntsok Drak-pa d8ee252b48 renamed clean script, better pdf margin 2019-08-06 15:54:24 +02:00
Phuntsok Drak-pa b3ecd4e724 Release 0.1.0 2019-08-03 18:45:03 +02:00
Phuntsok Drak-pa 6a613cb5c4 added draft for the Tãso proto-lang 2019-07-20 12:34:45 +02:00
Phuntsok Drak-pa bb70e66513 nah, let’s go back to article 2019-07-19 14:28:06 +02:00
Phuntsok Drak-pa 19b6ce0239 fixed header 2019-07-19 14:27:49 +02:00
Phuntsok Drak-pa 35875ad099 updated nyqy, added syntax, updated tree function 2019-07-17 14:49:52 +02:00
Phuntsok Drak-pa 95251bf04c numbers, removed dialects 2019-07-11 17:30:50 +02:00
Phuntsok Drak-pa d829cf3879 Updated function for feature tree generation, switched to svg 2019-07-11 17:30:24 +02:00
Phuntsok Drak-pa 0e7e334dab better layout 2019-07-11 05:39:00 +02:00
Phuntsok Drak-pa 563b041474 fix headers 2019-07-11 05:26:57 +02:00
Phuntsok Drak-pa 23591d55be no more confirmation for running code 2019-07-11 05:18:27 +02:00
Phuntsok Drak-pa fed8b1a758 tables now centered 2019-07-11 05:14:05 +02:00
Phuntsok Drak-pa 1c72af21ff updated headers for relative links to HTML headers 2019-07-11 05:12:23 +02:00
Phuntsok Drak-pa 4044a9bfb9 better tables, ʌ changed to ɤ, fixed phonotactics comment on sonorants 2019-07-11 04:16:34 +02:00
Phuntsok Drak-pa 97a2b6c5c2 Added some more phonological rules for Ňyqy 2019-07-11 03:22:49 +02:00
Phuntsok Drak-pa ea67bcf0a3 fixes 2019-07-11 03:22:20 +02:00
Phuntsok Drak-pa e354a12580 fixed clean script 2019-07-05 22:33:38 +02:00
Phuntsok Drak-pa 271d5df2ce Reorganized repo
Now the source files only will be on the main branch, whereas the html and pdf
files will be on the gh-pages branch.
2019-07-05 21:49:56 +02:00
Phuntsok Drak-pa ed1f6cd030 some more information on phonology for Ňyqy
Worked on allophony and phonotactics
2019-07-01 12:28:08 +02:00
Phuntsok Drak-pa 64777ee0bf added french version of file from previous commits 2019-07-01 10:29:06 +02:00
Phuntsok Drak-pa bae575c246 renamed file from last commit 2019-07-01 10:25:48 +02:00
Phuntsok Drak-pa 065612cc70 added feature tree for verbs of nyqy 2019-07-01 10:13:18 +02:00
Phuntsok Drak-pa b338cec4dd updated French name of Einnlanda, updated title for Einlanda files 2019-06-30 11:22:17 +02:00
Phuntsok Drak-pa 15d2bcb144 Added Ňyqy language, removed junk in Einnlanda files 2019-06-30 11:12:07 +02:00
Phuntsok Drak-pa 45cb91226f Changed consonants orientation in Mattér 2019-06-29 15:42:19 +02:00
Phuntsok Drak-pa d1d14c046f Fixed link. AGAIN. 2019-06-29 12:04:51 +02:00
Phuntsok Drak-pa fa8fd8c3aa fixed link 2019-06-29 11:53:37 +02:00
Phuntsok Drak-pa e0d7766822 added draft for Einlanda, fixed small issue with Mattér 2019-06-29 11:48:36 +02:00
Phuntsok Drak-pa d810260149 forgot to export these files 2019-06-23 13:30:10 +01:00
Phuntsok Drak-pa e895f1adc9 forgot to add this in previous commit 2019-06-23 12:21:44 +01:00
Phuntsok Drak-pa 0d0ee972db removed unused files, updated image filename 2019-06-23 12:21:21 +01:00
Phuntsok Drak-pa 4051495bdc Moved active languages to root, renamed old-matter 2019-06-23 12:16:02 +01:00
Phuntsok Drak-pa 82e0b3aa99 swapped matter and matter-grammar
The latter is kept for legacy purposes
2019-06-22 09:58:46 +01:00
Phuntsok Drak-pa 11751bbc2c tables in HTML are now aligned left 2019-06-22 09:56:25 +01:00
Phuntsok Drak-pa 23c9d28c4e some additions to pronouns in Mattér 2019-06-22 09:56:12 +01:00
Phuntsok Drak-pa 107dc797f4 Back to A4 PDFs 2019-06-22 09:55:51 +01:00
Phuntsok Drak-pa 9b2453e231 Gender, articles, mass nouns details added, updated pronouns 2019-06-21 20:50:57 +01:00
Phuntsok Drak-pa bb6ec73f00 additional dictionary entries 2019-06-19 23:12:43 +02:00
Phuntsok Drak-pa 55ac4cfb0a some verb morphology 2019-06-19 23:12:30 +02:00
Phuntsok Drak-pa 842d44d199 More information about nouns 2019-06-19 23:12:15 +02:00
Phuntsok Drak-pa 4df01d821b added some words and some elements for nouns 2019-06-10 04:10:58 +02:00
Phuntsok Drak-pa a26c175daa better css for tables 2019-06-05 03:34:46 +02:00
Phuntsok Drak-pa 74bfecdbe6 added paragraph on possession for nouns 2019-06-05 03:14:26 +02:00
Phuntsok Drak-pa 0d1ed207e7 restored some previous modification accidently erased 2019-06-03 11:53:02 +02:00
Phuntsok Drak-pa e0a659bbae merge branch 2019-06-03 11:48:50 +02:00
Phuntsok Drak-pa e031bb084f added info about numbers and nouns' numbers 2019-06-03 11:47:15 +02:00
Phuntsok Drak-pa df2ee9987d forgot to export lel 2019-06-02 15:09:49 +02:00
Phuntsok Drak-pa cf2b5ae25f excluded some more files from git repo 2019-06-02 14:57:08 +02:00
Phuntsok Drak-pa 97ff539c0f better image CSS, better chart 2019-06-02 14:55:08 +02:00
Phuntsok Drak-pa 1e549d64b0 Updated some info 2019-06-01 15:08:24 +02:00
Phuntsok Drak-pa e4fca9f533 separated Matter header into another file 2019-06-01 11:04:03 +02:00
Phuntsok Drak-pa 090cee2ce9 removed "eu" diphthong from Mattér
Since this is a very rare diphthong in natural languages and it hasn’t been used
yet in Mattér, I decided to completely remove it from the language.
2019-05-28 16:32:08 +02:00
Phuntsok Drak-pa 8c1859fbe8 additional word + orthography fix 2019-05-19 14:35:42 +02:00
Phuntsok Drak-pa e59cccee1a verb fixes for old mattér document 2019-05-19 14:35:27 +02:00
Phuntsok Drak-pa 2aec40b645 small update on old Mattér file 2019-05-19 12:50:51 +02:00
Phuntsok Drak-pa fa0266a89b again, minor fixes 2019-05-19 00:53:44 +02:00
Phuntsok Drak-pa bb51e478be minor fixes 2019-05-18 22:12:42 +02:00
Phuntsok Drak-pa cb7622e32b Fixed minor grammar issue 2019-05-16 14:40:52 +02:00
Phuntsok Drak-pa c9a0b48d9a changed a bit the presentation of the dictionary, added examples 2019-05-16 14:37:42 +02:00
Phuntsok Drak-pa b87f0aadc9 fixed some mistakes with phonetics 2019-05-16 14:22:46 +02:00
Phuntsok Drak-pa ff8430c996 a lot more words 2019-05-16 14:17:59 +02:00